SCP
0 0 0 2 1 1 1 0 1 0 0 0 0 1 1 1 1 1 1 1 1 1
0 0 0 0 1 0 0 1 1 0 0 0 0 0 0 1 0 0 0 0 0 0
0 0 0 0 1 0 0 0 0 -0 0 0 0 0 0 0 0 0 0 0 0 0
-0 -0 0 -0 0 0 0 0 0 0 0 0 0 0 0 0 0 0 0 0 0 0
0 -0 0 0 0 -0 0 0 0 0 0 0 0 0 0 0 0 0 0 0 0 0
0 0 0 0 0 0 0 0 0 0 0 0 0 0 0 0 0 0 0 0 0 0
0 0 0 0 0 0 -0 0 0 0 0 0 0 0 0 0 0 0 0 0 0 0
0 0 0 0 0 -0 -0 0 0 0 0 0 0 0 0 0 0 0 0 0 0 0
0 0 0 -0 -0 -0 0 0 0 0 0 0 0 0 0 0 0 0 0 0 0 0
0 0 0 -0 -0 0 0 0 0 0 0 0 0 0 0 0 0 0 0 0 0 0
0 0 -0 -0 0 0 0 0 0 0 0 0 0 0 0 0 0 0 0 0 0 -0
-0 0 0 0 0 0 0 0 0 0 0 0 0 0 0 0 -0 -0 -0 -0 -0 -0
0 -0 -0 0 0 0 0 0 0 -0 -0 -0 0 0 -0 -0 -0 -0 0 0 -0 -0
-0 -0 -0 0 0 -0 -0 -0 -0 -0 0 0 0 -0 0 0 -0 0 -0 0 -0 0
Wind_Speed_500mb
39 39 39 49 44 37 31 28 21 26 12 14 12 20 31 48 54 59 59 55 55 59
41 40 41 44 52 51 31 9 8 22 24 26 24 33 39 45 52 53 55 55 53 55
43 43 40 40 54 46 40 30 40 46 43 43 39 39 40 42 44 45 46 44 52 52
54 44 44 47 52 47 44 38 34 38 41 39 36 37 38 38 36 37 39 39 38 43
51 48 43 37 34 39 54 38 33 32 32 33 35 34 34 37 35 33 32 34 32 31
36 50 41 37 30 32 50 36 28 26 28 31 33 32 29 30 29 29 29 27 21 10
37 40 41 31 36 39 36 29 25 27 25 26 23 22 23 24 23 23 22 19 14 10
36 37 29 32 40 28 26 23 20 17 22 23 23 24 21 20 22 22 20 17 16 17
30 40 25 32 31 26 16 15 15 20 23 25 28 25 24 20 20 21 20 22 20 23
41 29 25 34 22 15 13 15 18 21 22 24 26 25 24 21 22 21 18 20 15 15
30 13 24 21 12 11 12 15 18 21 21 25 38 37 37 43 36 37 27 23 28 28
14 19 16 8 13 18 19 24 33 36 30 35 34 28 26 32 33 28 19 16 14 14
29 16 10 19 22 29 40 43 40 41 38 38 36 40 26 23 22 27 27 23 31 30
10 17 26 32 38 46 47 47 43 37 34 34 31 34 30 26 28 25 31 37 43 44
Wind_Direction_500mb
359 3 3 3 352 356 13 293 30 349 339 344 326 297 277 276 281 277 280 283 284 283
333 350 352 359 353 350 348 32 307 317 319 305 307 298 303 301 295 288 288 286 280 282
335 337 326 354 352 348 341 315 292 310 314 312 310 309 309 302 299 300 294 286 285 289
329 326 336 323 308 331 330 329 334 319 311 312 315 318 315 312 310 309 306 303 297 292
324 317 340 322 319 321 321 320 315 313 315 319 323 323 330 331 328 332 331 324 311 299
323 319 323 328 326 329 308 310 322 327 332 334 336 338 350 341 348 354 354 349 343 337
308 323 321 314 324 319 315 331 343 342 354 359 1 14 16 16 22 19 23 33 39 60
303 325 301 300 311 325 332 348 355 11 26 31 36 37 32 32 35 34 38 43 58 61
309 313 292 313 336 332 342 16 32 43 42 44 53 46 41 33 33 39 59 73 84 97
320 286 305 330 337 335 24 42 48 51 47 52 52 37 40 42 49 56 60 62 71 108
320 289 335 343 342 37 62 60 54 49 52 65 80 60 53 60 79 84 69 65 66 98
343 347 354 25 77 79 67 63 62 58 74 78 73 62 66 65 57 63 79 84 82 88
345 12 57 91 86 80 76 75 74 70 68 60 63 61 65 70 76 65 76 69 55 55
20 89 93 89 84 91 85 75 72 72 61 63 65 56 74 68 84 83 86 83 80 69
Wind_Speed_850mb
39 39 39 49 44 37 31 28 21 26 12 14 12 20 31 48 54 59 59 55 55 59
41 40 41 44 52 51 31 9 8 22 24 26 24 33 39 45 52 53 55 55 53 55
43 43 40 40 54 46 40 30 40 46 43 43 39 39 40 42 44 45 46 44 52 52
54 44 44 47 52 47 44 38 34 38 41 39 36 37 38 38 36 37 39 39 38 43
51 48 43 37 34 39 54 38 33 32 32 33 35 34 34 37 35 33 32 34 32 31
36 50 41 37 30 32 50 36 28 26 28 31 33 32 29 30 29 29 29 27 21 10
37 40 41 31 36 39 36 29 25 27 25 26 23 22 23 24 23 23 22 19 14 10
36 37 29 32 40 28 26 23 20 17 22 23 23 24 21 20 22 22 20 17 16 17
30 40 25 32 31 26 16 15 15 20 23 25 28 25 24 20 20 21 20 22 20 23
41 29 25 34 22 15 13 15 18 21 22 24 26 25 24 21 22 21 18 20 15 15
30 13 24 21 12 11 12 15 18 21 21 25 38 37 37 43 36 37 27 23 28 28
14 19 16 8 13 18 19 24 33 36 30 35 34 28 26 32 33 28 19 16 14 14
29 16 10 19 22 29 40 43 40 41 38 38 36 40 26 23 22 27 27 23 31 30
10 17 26 32 38 46 47 47 43 37 34 34 31 34 30 26 28 25 31 37 43 44
Wind_Direction_850mb
359 3 3 3 352 356 13 293 30 349 339 344 326 297 277 276 281 277 280 283 284 283
333 350 352 359 353 350 348 32 307 317 319 305 307 298 303 301 295 288 288 286 280 282
335 337 326 354 352 348 341 315 292 310 314 312 310 309 309 302 299 300 294 286 285 289
329 326 336 323 308 331 330 329 334 319 311 312 315 318 315 312 310 309 306 303 297 292
324 317 340 322 319 321 321 320 315 313 315 319 323 323 330 331 328 332 331 324 311 299
323 319 323 328 326 329 308 310 322 327 332 334 336 338 350 341 348 354 354 349 343 337
308 323 321 314 324 319 315 331 343 342 354 359 1 14 16 16 22 19 23 33 39 60
303 325 301 300 311 325 332 348 355 11 26 31 36 37 32 32 35 34 38 43 58 61
309 313 292 313 336 332 342 16 32 43 42 44 53 46 41 33 33 39 59 73 84 97
320 286 305 330 337 335 24 42 48 51 47 52 52 37 40 42 49 56 60 62 71 108
320 289 335 343 342 37 62 60 54 49 52 65 80 60 53 60 79 84 69 65 66 98
343 347 354 25 77 79 67 63 62 58 74 78 73 62 66 65 57 63 79 84 82 88
345 12 57 91 86 80 76 75 74 70 68 60 63 61 65 70 76 65 76 69 55 55
20 89 93 89 84 91 85 75 72 72 61 63 65 56 74 68 84 83 86 83 80 69